Regional Weather Roundup
Issued by NWS Glasgow, MT

Home | Current Version | Previous Version | Text Only | Print | Product List | Glossary On
Versions: 1 2 3 4 5 6 7 8 9 10 11 12 13 14 15 16 17 18 19 20 21 22 23 24 25 26 27 28 29 30 31 32 33 34 35 36 37 38 39 40 41 42 43 44 45 46 47 48 49 50
000
ASUS45 KGGW 281215
RWRGGW
HOURLY REGIONAL WEATHER ROUNDUP FOR NORTHEAST MONTANA
NATIONAL WEATHER SERVICE GLASGOW MONTANA
600 AM MDT WED SEP 28 2016

NOTE: "FAIR" INDICATES FEW OR NO CLOUDS BELOW 12,000 FEET WITH NO
SIGNIFICANT WEATHER AND/OR OBSTRUCTIONS TO VISISBILITY.

NORTHEAST MONTANA


CITY           SKY/WX    TMP DP  RH WIND       PRES   REMARKS
GLASGOW        CLEAR     50  43  77 VRB7      30.24R
6HR MIN TEMP:  49; 6HR MAX TEMP:  61;

PLENTYWOOD       N/A     50  45  83 N13G22      N/A
WOLF POINT     CLEAR     52  45  77 N5        30.23R
JORDAN           N/A     50  46  86 NW10      30.24R
SIDNEY         CLEAR     53  47  79 N9        30.18R
GLENDIVE       CLEAR     52  48  86 N8        30.19R
MALTA            N/A     49  42  77 NW3         N/A
SCOBEY           N/A     47  40  76 NW10      30.21R
OPHEIM           N/A     43  39  87 N13       30.04R

FORT PECK REPORTS


CITY           SKY/WX    TMP DP  RH WIND       PRES   REMARKS
FORT PECK        N/A     51  46  83 NW10        N/A
THE PINES        N/A     50  44  80 CALM        N/A

SOUTHEAST MONTANA


CITY           SKY/WX    TMP DP  RH WIND       PRES   REMARKS
BILLINGS       CLEAR     51  45  79 NE6       30.26R
MILES CITY     CLEAR     51  47  86 NW12      30.19R
BAKER          CLEAR     51  44  77 W6        30.18R
LIVINGSTON     CLEAR     44  40  85 CALM      30.27S

CENTRAL MONTANA


CITY           SKY/WX    TMP DP  RH WIND       PRES   REMARKS
HAVRE          CLEAR     44  39  82 NE7       30.32S
LEWISTOWN      CLEAR     41  39  93 CALM      30.31S
GREAT FALLS    CLEAR     38  35  89 NW3       30.32S
CUT BANK       CLEAR     36  32  85 NW8       30.32S
HELENA         CLEAR     50  37  61 W9        30.27S
BUTTE          CLEAR     38  34  85 CALM      30.26S
BOZEMAN        CLEAR     42  38  85 S6        30.25R

WESTERN MONTANA


CITY           SKY/WX    TMP DP  RH WIND       PRES   REMARKS
MISSOULA       CLEAR     49  44  83 N5        30.14S
KALISPELL      NOT AVBL

NORTH DAKOTA


CITY           SKY/WX    TMP DP  RH WIND       PRES   REMARKS
WILLISTON      CLEAR     47  44  90 CALM      30.18R
DICKINSON      CLEAR     46  41  82 CALM      30.14R
MINOT          CLEAR     40  37  89 SE6       30.18R
BISMARCK       CLOUDY    37  35  92 NE6       30.20R

SOUTHERN SASKATCHEWAN


CITY           SKY/WX    TMP DP  RH WIND       PRES   REMARKS
REGINA         CLEAR     48  45  87 N14G22    30.23R
MOOSE JAW      CLEAR     45  43  93 NW8       30.29R
ESTEVAN        PTCLDY    37  37 100 NW7       30.18R
SWIFT CURRENT  MOCLDY    41  39  93 N8        30.32R




USA.gov is the U.S. government's official web portal to all federal, state and local government web resources and services.